Theta_e
318 318 318 318 318 318 318 318 318 318 319 319 319 319 319 319 320 320 319 319 319 319 319 319 319 319 319 319 320 321 319 315 313 312 308 309 319 322 338 337 338 338 336 331 324 333 329 332 328 327 321 322 324 323 337 340 343 336 322 316 312 317 320 324 324 328 332 328 331 333 336 332 329 334 340 346 339 335 334 333 336 337 337 339 340 343 344 346
318 318 318 318 318 318 318 318 318 318 318 319 319 319 319 319 319 319 319 319 319 318 318 318 319 319 320 319 320 321 318 315 311 311 310 321 329 332 335 340 343 345 339 320 317 324 321 322 323 325 327 324 334 326 340 337 344 329 323 318 314 321 329 332 334 336 331 330 332 334 338 333 331 335 338 333 330 331 328 330 333 333 336 339 341 342 343 344
318 318 317 317 317 318 318 318 318 318 318 319 319 319 319 319 319 319 318 318 318 318 318 318 319 319 320 320 321 322 317 312 312 310 313 336 334 337 336 342 347 345 325 319 313 321 322 322 324 327 327 326 330 328 337 335 338 335 322 317 317 327 335 337 339 337 341 336 333 334 335 335 335 339 343 331 328 330 326 326 330 331 331 335 338 341 342 343
317 317 317 317 317 318 318 318 318 318 318 318 318 318 319 318 318 318 318 318 318 318 318 318 319 320 320 321 322 318 315 311 308 314 320 343 342 342 340 340 342 343 324 317 314 321 325 327 326 327 324 324 326 335 331 336 333 334 327 320 322 330 329 336 339 340 340 338 335 334 334 333 335 338 340 331 326 326 328 331 331 330 332 335 338 340 341 341
317 317 317 317 317 317 317 318 318 318 318 318 318 318 318 318 318 318 318 318 318 318 318 318 319 320 320 321 320 315 310 304 307 317 323 352 346 339 342 344 343 339 323 313 316 317 316 316 318 324 322 318 326 332 331 336 338 332 326 329 332 332 330 337 339 341 339 340 336 334 329 330 341 340 337 331 324 323 328 332 335 335 336 336 337 339 341 340
317 317 317 317 317 317 317 317 318 318 318 318 318 318 318 317 317 317 318 317 317 318 318 319 319 320 321 321 316 314 306 298 313 313 359 355 346 340 343 347 349 333 317 313 312 313 315 315 313 311 314 317 322 325 330 335 337 323 329 330 333 333 334 337 339 339 340 337 335 331 333 336 335 333 336 334 332 332 337 336 337 338 338 339 340 340 339 340
317 317 317 317 317 317 317 317 317 317 317 317 317 317 317 317 317 317 316 317 317 317 319 319 320 320 320 320 313 312 301 301 312 313 351 353 345 340 347 345 352 318 312 309 311 312 312 311 313 311 315 315 318 326 333 333 334 330 325 330 332 333 335 338 340 340 339 337 336 337 339 334 333 328 336 333 336 339 337 339 339 339 340 340 338 339 339 340
316 317 317 317 317 317 317 317 317 317 317 317 317 317 317 317 317 317 317 317 317 318 319 319 320 320 321 314 311 304 304 304 310 315 353 350 342 339 344 339 323 312 310 308 308 309 312 310 311 315 313 310 312 325 333 331 332 327 326 333 331 332 337 340 340 339 338 337 340 338 333 332 335 334 337 333 338 338 337 339 339 339 339 339 338 338 339 340
316 317 317 317 317 317 317 317 317 317 317 317 317 316 317 317 316 316 317 317 317 318 319 319 320 320 321 315 304 300 297 309 319 343 350 341 333 337 330 328 313 311 309 307 308 309 313 311 311 315 312 314 316 319 330 327 322 331 330 332 330 334 338 340 339 339 341 339 338 334 332 335 337 339 333 337 341 339 338 338 338 338 337 337 338 339 339 340
317 317 317 317 317 317 317 317 317 317 317 317 317 316 316 316 316 316 317 317 318 319 319 320 321 321 316 312 306 296 309 315 339 342 337 332 332 330 322 322 313 309 307 306 307 309 311 312 314 317 317 313 313 309 330 325 319 333 331 333 332 335 337 339 335 337 338 336 337 331 330 331 338 336 325 339 341 339 336 336 337 336 335 337 338 339 340 340
317 317 317 316 317 317 317 317 317 317 317 316 316 316 315 316 316 316 317 318 318 319 320 322 322 318 310 313 295 295 313 328 331 330 332 332 328 322 319 315 313 309 307 304 306 310 312 315 316 316 317 309 311 307 327 326 321 333 334 333 333 334 336 337 337 337 339 333 335 332 329 334 337 336 328 337 341 343 334 334 334 335 335 336 337 338 339 340
317 316 316 316 316 317 317 317 317 317 316 316 315 315 315 315 315 316 316 318 319 321 322 323 322 317 313 309 299 298 315 327 327 325 328 325 321 320 318 314 313 309 306 304 306 308 311 314 314 314 308 316 306 308 316 317 318 333 333 326 329 332 330 334 335 336 339 331 336 334 329 327 330 328 335 339 343 341 334 333 333 333 334 335 336 337 338 339
317 317 316 316 316 316 317 317 317 316 316 315 315 314 315 315 314 315 316 317 319 322 324 323 321 316 312 300 304 313 318 318 324 322 322 319 312 311 309 310 312 308 307 306 306 309 311 313 315 311 314 312 307 302 309 311 313 333 331 327 325 326 324 331 336 338 336 334 337 335 314 320 326 330 335 341 341 337 332 331 332 333 334 335 335 336 337 339
317 317 316 316 316 317 317 317 316 316 315 315 314 314 314 313 314 315 317 317 320 323 323 324 318 314 309 300 307 317 319 316 321 320 319 318 311 311 312 309 308 307 309 308 311 313 314 313 313 312 316 311 307 310 308 305 323 322 328 327 318 318 317 330 334 336 332 336 337 335 316 319 325 331 337 339 339 333 329 330 331 332 333 334 335 336 336 338
316 317 316 316 316 316 316 316 316 315 315 315 314 313 313 312 314 316 318 319 322 322 324 323 315 312 306 308 314 318 338 319 315 319 319 314 309 307 308 309 306 306 307 309 312 314 314 315 316 310 307 313 313 306 299 300 317 324 318 313 317 315 316 328 334 335 328 333 337 328 314 319 326 331 336 339 336 335 329 329 330 331 332 333 334 335 335 337
317 316 316 316 316 316 316 316 315 315 314 313 312 312 313 314 316 318 320 321 323 323 321 313 312 313 304 299 306 326 319 314 314 318 319 316 308 303 308 307 306 306 306 307 311 312 312 316 310 307 307 307 304 296 295 299 309 315 313 313 314 315 316 322 330 335 337 332 334 330 316 322 324 333 337 339 335 333 330 329 329 330 332 332 333 334 334 335
316 316 316 316 316 316 316 315 315 315 313 312 311 312 313 315 318 320 321 323 323 322 318 311 312 315 297 306 316 313 311 315 317 316 317 317 310 306 306 304 306 305 306 307 311 315 313 311 309 309 305 300 299 297 295 294 296 307 307 312 317 314 317 314 327 332 334 332 326 332 322 323 328 333 336 338 334 331 329 329 329 330 331 331 332 332 332 333
316 316 316 316 316 316 315 314 315 314 312 311 310 310 310 315 319 320 320 321 322 318 315 317 314 307 302 308 303 309 314 313 315 314 317 318 312 307 306 306 309 305 307 307 312 307 310 306 304 297 298 300 299 294 294 293 297 304 309 312 314 317 319 316 317 326 330 331 327 328 324 324 329 332 335 336 335 331 329 329 329 329 330 330 331 331 331 331
316 316 316 316 315 315 315 314 314 313 312 311 311 315 315 317 316 312 312 315 309 302 297 303 304 298 291 300 306 309 312 315 315 313 311 312 310 309 311 312 309 307 304 304 305 307 304 301 300 298 295 295 297 298 296 299 302 305 312 313 315 313 314 315 322 329 330 326 324 324 321 325 328 330 332 335 335 330 329 331 332 331 329 330 330 330 330 329
316 316 316 315 315 315 315 315 313 312 310 307 307 312 314 307 306 308 312 312 305 305 304 305 306 307 305 306 306 309 316 316 312 311 311 311 310 307 309 311 310 308 305 301 302 304 302 296 293 294 294 297 299 299 300 300 300 299 300 314 315 315 315 320 323 328 332 327 324 324 325 327 327 329 331 333 334 331 329 330 331 331 328 329 329 329 329 328
316 316 316 315 315 315 315 314 312 311 309 307 306 308 301 302 296 295 301 306 309 309 306 306 308 306 305 308 310 310 308 308 312 311 313 318 309 306 303 307 305 302 302 303 301 304 302 295 294 295 297 298 299 299 300 300 300 299 297 299 307 315 312 318 322 328 331 325 321 325 325 326 327 329 331 332 331 328 329 329 330 331 328 328 328 328 328 327
316 316 315 314 314 314 314 313 312 311 309 306 309 304 305 308 309 309 304 297 302 308 309 308 310 308 312 311 313 314 313 308 307 308 313 315 307 303 303 303 301 300 301 301 301 300 297 294 296 298 299 300 300 299 299 299 298 298 296 295 296 303 317 322 326 328 329 322 319 325 322 324 327 329 331 330 329 330 331 331 331 331 328 327 327 328 327 325
316 315 315 315 314 313 312 312 311 308 307 308 307 309 307 309 312 312 308 300 298 304 306 307 307 307 309 313 315 315 308 305 302 307 310 313 306 306 304 300 300 299 300 299 297 294 294 295 299 300 300 299 299 298 298 298 297 295 295 295 293 302 314 310 322 327 326 322 321 323 321 322 328 330 330 332 333 333 335 333 334 333 328 326 327 327 326 325
316 316 315 314 314 312 312 311 309 307 306 308 308 308 312 312 311 311 304 296 295 300 303 305 308 308 308 307 310 311 305 305 305 306 318 311 306 306 304 300 299 299 297 297 297 294 295 297 302 301 299 298 298 298 296 295 294 295 295 295 294 312 314 317 319 324 325 328 328 323 319 319 323 324 324 330 333 332 332 334 333 332 334 331 332 331 327 325
315 315 315 314 313 312 310 309 307 310 311 308 308 311 313 314 313 311 302 295 293 296 304 305 312 309 310 313 311 307 307 307 307 309 316 311 306 305 302 304 300 297 297 298 297 296 296 301 303 301 299 297 296 295 295 295 291 291 294 297 297 315 316 321 323 321 317 316 323 320 309 311 320 322 324 328 329 329 332 331 329 330 331 333 333 333 335 328
315 315 315 314 314 312 309 307 311 309 309 309 311 313 313 314 312 309 299 290 287 292 299 297 306 302 307 302 309 307 306 302 307 309 314 312 315 306 306 301 302 297 298 298 296 295 298 302 301 299 298 296 295 295 295 296 291 292 292 297 299 316 320 321 320 318 310 308 319 320 304 302 317 319 322 325 325 325 330 330 330 330 331 332 332 333 335 332
315 315 314 313 313 309 305 306 308 309 306 308 312 314 315 315 312 307 299 286 282 296 295 301 302 300 304 304 306 305 293 296 305 313 311 318 310 312 301 298 302 304 303 302 298 294 301 300 299 299 298 296 294 293 296 296 292 290 294 297 298 317 320 320 320 317 311 321 322 321 312 305 306 316 324 326 324 324 326 329 330 330 331 332 333 333 334 335
315 314 312 312 310 309 306 306 309 306 307 311 314 315 315 314 309 305 294 281 282 298 295 297 301 306 304 302 306 299 299 303 299 304 312 313 312 308 304 299 298 298 302 300 291 298 299 299 298 297 296 295 294 296 298 298 294 292 297 300 302 317 321 321 319 314 314 315 308 316 316 303 302 310 324 326 321 322 323 326 329 330 331 332 333 334 334 336
314 313 313 311 310 308 309 307 308 307 310 314 314 314 316 312 305 296 287 280 295 295 305 297 307 304 301 302 302 301 300 302 296 300 310 312 311 305 301 300 301 301 302 301 294 296 301 301 300 300 297 294 297 298 299 298 296 298 299 303 309 316 319 322 317 312 311 308 303 311 315 301 296 308 318 323 321 321 323 325 328 330 331 331 332 334 336 336
314 312 312 311 307 308 307 308 307 312 314 314 314 314 314 306 299 292 285 279 295 289 299 298 297 295 299 296 296 300 298 299 302 307 308 305 307 307 306 307 304 301 299 300 299 299 301 309 313 301 297 299 300 301 300 299 300 302 301 303 303 305 314 318 317 310 305 301 304 313 315 308 297 310 317 317 319 323 325 326 328 331 332 332 333 333 335 336
312 311 310 310 304 310 310 303 307 312 314 314 313 311 305 299 293 283 280 287 297 293 298 296 294 298 296 294 292 297 298 298 300 305 302 306 301 303 303 302 302 295 291 292 295 297 299 300 301 303 307 304 302 300 300 301 301 300 299 300 298 297 303 306 305 307 302 296 304 312 314 312 299 300 317 323 326 327 326 325 327 329 331 332 333 334 335 336
310 309 310 307 308 312 304 305 308 311 313 313 313 305 297 291 287 282 286 300 288 291 291 290 295 294 294 296 295 295 294 297 300 302 300 297 296 298 296 292 294 292 289 289 292 295 295 297 298 301 316 304 300 297 298 300 300 299 298 298 294 288 294 294 299 297 295 296 302 312 313 307 306 307 316 323 325 326 328 329 329 330 331 332 333 334 335 337
309 308 308 309 311 307 310 310 313 313 313 315 307 299 291 283 281 286 288 292 289 294 292 297 293 294 293 293 292 295 296 294 296 300 300 297 296 297 298 299 296 293 288 291 290 289 291 295 299 300 303 308 301 295 294 295 296 297 296 293 292 287 290 286 292 295 296 302 303 306 314 306 304 308 314 319 326 328 329 330 332 332 332 332 334 335 336 337
308 308 305 309 309 311 313 316 316 313 314 312 300 295 289 284 284 310 293 289 292 296 296 295 295 293 293 289 291 294 292 295 297 296 299 294 291 294 296 297 299 296 293 292 291 287 285 290 295 299 296 303 303 299 298 293 296 297 297 298 294 290 288 285 288 291 295 297 300 309 306 297 301 304 317 319 323 329 330 331 332 333 333 334 335 336 336 337
308 307 307 309 311 312 312 314 313 315 309 303 297 289 284 283 287 287 288 289 291 295 294 295 292 291 291 291 292 294 294 292 296 294 292 290 289 291 292 293 297 298 294 291 292 294 291 288 295 300 302 303 303 304 302 299 298 298 298 299 294 295 295 292 293 295 295 295 298 302 300 306 304 315 319 323 324 327 331 330 331 331 333 334 334 335 336 337
307 311 309 309 312 313 314 315 313 312 304 302 293 288 287 290 288 291 291 297 295 293 293 293 294 287 287 285 290 293 296 293 293 292 291 291 294 291 295 296 296 298 292 289 290 289 290 288 295 299 300 301 303 305 304 302 292 297 298 294 296 299 300 295 302 300 300 297 295 304 302 305 311 314 318 322 325 326 329 330 330 330 332 333 333 334 335 337
310 312 309 311 312 318 316 316 316 309 304 298 292 289 292 295 294 296 307 296 297 295 292 287 289 288 287 287 287 290 292 293 292 289 289 293 289 294 294 294 298 298 297 293 293 295 289 290 294 297 298 300 304 305 306 304 300 298 294 297 301 304 300 295 291 290 288 288 294 301 299 300 300 301 315 319 319 320 322 326 330 330 331 331 332 333 335 335
309 311 316 315 315 315 317 317 312 305 300 295 291 305 298 294 299 299 298 296 297 295 291 288 291 291 289 287 289 291 293 289 291 291 292 293 290 297 295 294 297 298 297 298 293 296 293 287 290 295 298 299 302 304 301 306 303 298 297 300 299 293 295 293 293 288 287 290 293 296 301 302 301 301 312 314 316 318 321 324 326 327 329 330 331 332 334 336
309 306 304 310 314 317 317 315 308 303 296 292 292 294 303 297 299 298 298 298 297 293 290 293 291 294 291 287 289 292 293 289 294 291 288 293 288 297 295 296 296 299 299 297 293 296 295 289 289 295 300 298 299 299 293 296 302 302 300 298 300 296 292 293 292 290 290 289 294 295 298 297 305 306 314 315 319 321 321 325 327 329 331 332 332 334 335 335
303 299 299 310 314 318 318 311 303 298 295 293 292 295 297 297 300 298 298 300 297 294 295 293 295 290 292 293 292 290 293 292 291 292 292 294 291 298 295 297 296 297 298 300 297 298 296 292 287 292 297 298 295 294 294 293 295 297 294 293 298 297 298 296 296 294 290 293 291 294 292 296 304 317 318 319 322 324 325 326 327 328 329 331 332 333 334 335
306 299 299 309 313 315 312 305 298 296 296 294 297 297 297 299 299 298 299 299 298 301 297 297 294 291 293 290 292 293 292 291 291 290 292 294 291 289 296 297 297 296 296 296 297 297 293 291 291 290 292 288 291 295 297 297 297 295 292 294 292 293 293 289 288 293 299 296 292 292 288 291 309 322 321 321 324 326 328 328 327 328 329 330 331 334 336 336
299 297 302 314 311 309 305 298 295 296 295 295 294 297 299 311 296 297 299 299 299 297 301 297 298 296 294 294 293 292 291 291 291 290 293 290 295 291 296 296 296 298 296 293 293 297 298 295 295 290 291 293 296 299 301 299 299 297 295 296 293 292 291 286 286 288 298 300 303 298 295 296 316 322 322 323 325 326 327 327 326 327 328 329 332 335 335 338
300 299 308 313 315 307 299 293 301 301 297 296 301 300 300 298 297 298 297 298 300 298 297 297 298 297 297 296 296 294 293 291 293 292 293 293 294 297 297 295 296 297 293 291 297 297 313 294 292 294 296 297 298 298 300 301 298 296 295 294 294 296 295 291 288 290 297 300 296 293 295 302 316 323 323 325 326 326 328 327 326 326 327 328 329 331 333 336
301 302 307 313 311 307 299 293 290 290 295 299 299 299 299 299 297 296 296 297 297 297 297 298 298 302 298 299 296 294 297 289 294 292 292 295 293 297 298 294 297 296 297 296 296 300 296 297 293 290 288 290 292 294 295 298 298 293 293 293 295 296 296 294 297 297 298 298 298 296 292 302 315 322 324 324 323 323 324 325 326 324 326 327 328 330 331 333
305 306 307 310 312 302 297 293 294 292 294 297 294 293 295 296 298 298 298 296 298 297 298 296 299 300 299 299 297 299 299 293 291 296 292 294 294 298 296 295 297 297 299 305 316 309 296 298 294 287 286 284 284 283 285 289 292 294 295 294 296 296 295 295 295 294 287 297 299 297 298 307 316 320 321 322 321 321 324 325 326 325 324 325 327 328 330 332
301 295 300 299 301 296 298 298 295 293 293 295 291 293 295 294 296 299 298 298 298 297 297 300 300 301 300 299 296 297 297 300 295 295 294 294 293 295 296 296 298 304 321 316 316 305 297 301 298 293 289 288 290 291 295 301 291 290 292 294 295 296 300 296 294 293 291 294 296 299 305 308 311 316 317 319 321 320 321 322 322 322 324 325 325 327 329 330
305 297 296 297 302 292 293 292 294 295 294 295 289 294 293 294 295 297 299 295 299 297 298 298 299 298 300 299 299 297 299 298 299 296 296 296 296 296 297 299 299 310 319 308 310 301 295 293 297 298 298 297 298 298 296 299 292 292 292 293 295 295 297 297 294 292 298 300 291 302 310 308 310 315 317 318 321 321 321 321 321 322 323 324 325 327 329 330
294 299 301 305 293 289 290 293 294 298 300 296 294 295 294 293 293 293 296 298 299 299 296 298 299 300 301 300 300 296 298 297 296 294 297 298 295 297 295 299 298 306 305 297 302 296 291 292 298 299 295 296 296 295 295 294 293 294 294 295 295 296 299 301 301 302 302 297 295 303 309 309 312 315 318 319 320 319 320 321 322 322 323 323 324 324 324 325
303 302 304 310 297 296 294 297 301 298 300 299 297 295 292 292 293 295 295 294 296 297 297 292 294 296 298 301 297 295 296 290 292 296 295 295 296 294 292 294 298 299 298 295 296 299 291 290 300 297 296 295 296 296 295 293 292 292 293 294 296 298 304 304 304 304 302 299 304 308 309 310 314 316 318 319 321 321 320 321 321 320 319 319 318 319 320 322
299 302 302 308 306 302 304 298 300 296 293 301 291 295 293 294 294 295 294 294 292 294 297 294 295 295 295 295 294 291 296 297 297 293 297 294 291 295 294 294 293 297 297 295 297 295 291 290 304 298 293 293 295 297 295 294 294 292 293 295 295 297 307 307 307 308 309 308 309 309 309 308 313 317 318 320 320 320 320 319 319 319 319 317 316 316 316 315
309 307 308 303 300 304 306 299 295 293 290 292 290 297 299 294 295 297 295 296 296 295 297 296 297 296 296 294 294 294 297 300 301 298 298 296 291 297 293 294 298 296 296 293 294 296 294 290 293 294 290 291 294 294 294 294 293 293 292 293 294 294 296 303 304 307 306 304 307 307 305 306 310 317 319 319 318 317 316 316 315 315 315 315 314 314 314 314
308 308 312 305 300 310 299 300 294 291 290 293 296 296 297 296 297 295 292 298 297 298 299 298 298 294 293 293 293 295 297 297 297 295 296 295 297 297 297 297 297 296 294 294 295 293 293 288 287 289 288 289 295 295 294 293 290 288 290 292 294 294 299 307 308 311 310 311 306 304 305 311 313 317 315 315 316 316 314 313 313 313 313 313 313 314 314 315
Wind_Speed
12 12 12 12 13 13 13 14 14 14 14 14 14 13 13 11 11 11 11 11 12 12 12 12 12 13 12 13 12 12 10 7 6 1 2 13 7 11 7 6 8 13 9 2 6 10 3 4 4 5 5 4 3 1 2 3 2 1 1 1 1 1 1 6 4 5 3 8 7 6 4 7 8 0 0 1 5 7 5 5 4 9 10 8 13 13 15 16
13 13 12 13 13 13 13 14 14 15 14 14 14 14 13 13 12 11 11 11 11 12 12 12 12 12 12 12 11 11 9 4 5 6 17 6 9 13 11 8 5 12 9 2 8 7 8 5 5 6 5 3 4 2 7 2 4 3 1 0 1 1 1 10 2 5 10 7 10 7 2 5 6 4 2 5 7 8 9 7 9 11 12 13 13 16 16 15
14 14 14 13 13 13 13 14 14 14 15 15 14 14 14 13 13 12 11 10 11 11 11 12 12 11 11 10 10 8 7 4 2 7 14 20 17 10 12 10 8 11 10 4 5 7 6 8 6 7 4 1 3 3 5 1 3 4 1 1 2 3 2 3 3 6 0 11 10 8 4 4 5 2 0 6 11 8 10 11 12 14 16 16 16 16 16 14
14 14 15 14 14 14 14 14 14 15 15 15 15 14 14 14 14 13 12 11 11 11 11 11 11 11 10 10 8 5 1 2 1 4 5 4 17 14 12 11 9 7 5 1 4 4 0 2 5 5 2 3 3 5 5 3 3 1 1 2 1 3 3 4 5 2 8 9 10 7 5 4 3 1 1 10 12 5 7 8 13 17 18 18 17 17 14 15
14 14 14 15 15 15 15 14 14 15 15 15 15 15 15 14 13 13 13 12 11 11 10 10 11 10 10 8 5 1 1 1 2 2 1 6 14 16 12 10 9 6 8 3 5 2 2 2 2 3 2 2 2 3 3 4 4 1 4 2 1 2 2 6 6 6 9 6 7 8 11 6 3 2 4 8 12 12 11 12 12 17 17 19 19 17 14 15
14 14 15 15 15 15 15 15 15 15 15 14 15 15 15 15 13 13 13 13 12 11 10 10 10 10 9 8 2 1 0 2 2 3 3 7 13 16 12 10 10 7 6 3 3 4 3 1 2 1 1 1 3 6 2 7 6 1 3 3 2 2 4 6 8 8 8 8 8 12 6 8 3 4 4 5 1 1 5 12 15 16 17 17 15 16 14 14
14 15 15 15 15 15 15 16 16 16 15 15 14 14 14 14 14 13 13 13 13 11 11 9 10 9 7 7 0 0 0 7 3 8 6 10 13 14 10 9 9 7 6 4 3 4 4 2 4 2 1 2 5 5 2 5 6 2 3 1 1 3 4 8 9 10 6 8 9 4 8 7 7 8 2 3 5 4 8 13 14 15 15 16 16 15 14 14
14 15 15 15 16 16 16 16 16 15 15 15 14 14 14 14 14 14 14 14 13 12 10 9 8 7 5 2 0 1 1 6 10 4 5 10 12 12 10 4 7 6 6 7 6 5 6 5 7 3 2 4 2 7 2 4 5 3 3 1 1 3 4 6 9 9 10 3 6 9 11 9 6 6 1 1 3 6 12 14 15 16 16 13 14 14 13 12
15 15 15 15 15 16 16 16 16 16 15 15 14 14 14 14 14 14 14 13 13 11 10 8 6 3 3 2 1 2 3 7 5 4 8 10 9 9 10 4 5 8 5 3 4 3 6 7 3 5 4 3 2 3 4 5 3 5 5 1 3 5 6 6 7 6 10 7 9 13 11 6 7 6 4 3 3 7 15 14 16 16 15 15 14 14 13 13
15 16 16 16 16 16 17 16 16 16 16 15 14 14 14 14 13 13 14 14 13 11 9 6 5 2 1 0 1 1 3 2 3 3 6 10 10 9 6 4 10 7 6 5 3 5 7 4 10 3 3 5 3 4 8 6 3 6 6 3 7 6 9 4 7 6 10 9 9 10 5 1 4 4 3 4 3 7 17 17 15 15 15 15 13 13 12 13
16 16 16 15 16 16 17 17 17 16 16 16 15 14 14 13 13 13 14 13 12 11 7 6 4 5 0 0 2 4 4 2 2 3 8 10 12 10 10 7 9 8 7 4 7 9 4 1 2 1 1 2 2 2 7 2 1 7 10 10 9 8 7 6 8 8 6 7 14 12 6 1 2 1 6 4 4 2 16 16 15 14 13 13 14 13 11 11
16 16 16 16 16 16 16 17 17 17 17 16 15 14 14 13 13 13 13 13 13 11 6 5 6 3 1 0 3 7 4 3 3 2 5 12 10 14 12 8 11 10 10 7 8 7 5 2 2 2 2 3 2 1 2 1 1 10 13 5 4 5 5 1 4 5 8 5 10 14 9 3 1 5 3 1 1 0 14 15 16 14 13 12 13 11 11 11
16 16 16 16 16 17 17 17 17 17 17 17 15 14 14 14 13 13 13 12 11 9 7 5 6 0 1 1 9 8 3 3 4 5 3 1 2 2 2 4 7 5 8 6 5 5 6 1 1 2 2 3 3 1 1 1 3 6 4 8 5 2 2 1 3 5 8 8 10 9 7 4 1 2 1 1 2 6 15 16 15 12 13 12 12 11 11 10
17 16 16 16 16 17 17 17 17 18 18 16 14 15 15 14 13 12 12 10 12 12 4 9 4 1 1 5 6 3 4 3 2 4 4 2 3 1 0 1 3 3 2 5 1 3 4 4 4 5 3 3 3 3 1 3 3 4 6 5 3 5 3 4 2 5 7 4 5 2 4 5 6 6 3 2 1 12 17 17 14 14 13 12 12 11 11 11
16 16 16 16 16 17 17 17 17 17 16 16 15 17 16 13 13 12 10 7 9 2 9 8 1 1 1 7 6 8 8 2 4 5 7 6 4 2 4 1 3 5 4 3 1 0 2 2 1 1 4 4 5 2 2 2 1 5 6 1 1 1 0 4 1 6 6 5 6 2 3 4 7 7 6 4 4 8 15 15 15 14 14 13 11 12 11 11
12 14 15 16 17 17 16 14 14 16 17 17 16 16 15 13 11 8 5 5 1 7 5 1 1 0 1 6 2 5 1 3 5 8 5 8 6 4 8 6 1 3 2 3 4 3 2 1 2 4 3 3 2 3 2 4 0 1 2 3 4 1 2 2 3 6 2 8 4 3 5 4 3 5 6 5 7 10 11 13 13 14 16 14 12 11 10 10
13 12 12 16 17 17 17 14 15 16 16 17 18 15 11 9 7 4 3 3 2 3 1 1 1 1 1 3 4 2 1 3 2 3 5 6 7 3 8 4 2 2 3 3 2 0 1 1 2 1 0 2 3 4 3 1 1 3 2 2 2 4 4 2 1 7 4 9 5 6 4 7 3 8 7 7 9 11 10 11 10 12 13 13 12 11 10 11
16 14 13 16 18 18 17 14 14 16 16 17 15 12 8 5 2 3 2 2 2 1 3 3 2 2 7 3 1 0 1 4 1 6 9 7 6 4 7 3 1 3 3 1 1 2 1 2 0 4 1 2 2 3 6 9 8 5 2 4 2 1 6 2 6 8 8 7 6 5 2 7 4 9 8 8 9 10 11 11 9 9 13 13 12 11 11 11
20 18 15 14 17 18 17 15 13 13 15 17 14 6 4 4 2 2 3 2 1 1 1 0 1 1 2 1 5 7 2 5 0 7 5 4 4 2 2 1 6 6 2 2 2 5 1 0 2 1 5 3 6 7 5 2 6 7 8 6 6 7 7 7 5 7 13 10 6 7 6 7 9 8 9 7 10 13 11 5 4 5 11 12 12 11 11 10
22 19 17 15 15 18 18 15 12 9 12 8 6 2 2 1 1 0 0 1 3 7 6 4 5 3 7 8 6 3 7 5 3 5 4 5 4 4 1 1 2 2 4 3 1 3 3 4 5 7 7 7 4 4 5 3 2 3 1 3 6 8 3 2 3 8 9 8 6 5 6 8 11 12 10 9 7 10 12 10 6 5 10 12 11 11 10 9
18 17 17 16 14 14 16 13 11 8 9 3 2 1 1 1 2 2 2 6 6 6 6 6 11 9 7 4 4 3 4 4 2 3 5 4 4 7 2 2 1 2 3 4 2 1 3 4 8 7 7 6 5 4 3 3 3 1 3 1 4 5 7 4 4 11 8 6 3 4 8 9 11 11 10 7 8 12 15 12 7 6 9 10 11 12 10 7
18 18 17 16 15 13 13 12 10 9 6 2 0 2 0 3 0 1 1 4 4 11 10 9 1 5 5 8 9 2 2 1 6 3 1 7 4 6 1 3 3 6 2 1 1 0 2 7 7 6 7 3 0 3 3 3 3 1 3 3 1 2 1 4 6 10 9 4 3 7 8 8 10 10 8 11 13 11 13 11 7 7 10 10 10 11 9 7
19 18 17 17 15 14 12 11 9 6 2 0 3 1 2 4 2 2 1 1 6 2 4 2 3 5 6 5 2 6 3 3 4 2 3 4 3 6 4 3 4 3 0 3 5 1 2 8 9 6 1 1 3 3 2 1 1 1 1 1 4 5 5 1 3 9 9 2 5 7 7 5 4 3 8 5 4 1 4 3 4 5 11 12 12 10 10 10
18 17 18 17 16 15 13 11 8 1 2 1 2 4 4 0 1 3 1 2 3 6 3 4 4 2 6 1 2 5 5 2 4 4 2 5 7 2 4 4 3 1 3 3 5 6 8 7 1 3 3 4 5 1 3 2 6 1 3 4 4 3 3 5 8 8 5 5 10 9 6 1 3 4 7 6 4 4 7 5 3 2 3 6 5 4 9 12
17 17 17 17 17 16 14 9 1 1 1 1 4 6 4 5 1 2 2 3 2 3 3 0 0 4 5 1 1 1 2 1 3 2 2 7 3 3 2 2 3 4 3 3 3 3 8 10 1 0 2 2 3 4 3 4 5 2 5 9 8 5 6 11 14 12 3 3 6 13 4 5 5 8 9 7 5 7 9 9 8 6 4 5 6 7 5 8
17 17 16 15 18 19 14 1 0 2 3 3 3 3 3 7 2 3 3 3 2 3 3 1 0 1 1 2 1 3 3 1 4 2 4 5 6 4 1 0 2 6 4 2 4 4 7 2 3 5 4 4 4 5 3 7 5 1 6 7 8 7 10 16 14 8 5 6 8 7 5 3 2 11 9 7 7 9 7 9 10 8 6 6 8 7 7 9
16 16 14 14 14 17 3 1 1 3 2 3 2 5 6 5 1 4 2 3 3 1 0 1 0 0 2 2 3 3 2 3 3 2 3 3 4 1 5 3 0 0 2 2 1 5 2 2 4 3 3 4 4 7 4 9 6 4 5 2 6 10 15 16 17 10 4 3 7 6 2 5 2 7 8 10 10 8 10 12 12 10 8 8 8 8 7 8
15 15 13 12 11 5 2 3 5 3 4 4 4 7 7 4 2 3 3 2 1 2 1 1 1 2 0 3 2 2 3 1 2 2 4 3 4 0 2 5 6 5 1 2 6 6 3 4 4 4 4 5 7 6 5 9 6 5 3 5 5 11 14 16 12 7 5 8 3 9 3 1 3 2 8 11 12 12 14 15 14 12 10 9 9 7 8 7
15 13 12 10 10 6 3 1 1 3 3 2 6 7 6 3 4 3 2 2 1 0 4 0 3 1 1 1 1 0 1 0 1 2 1 2 1 4 2 4 3 2 2 4 6 4 2 6 6 8 6 7 7 7 7 10 7 6 4 4 4 6 7 13 7 6 4 5 5 10 9 3 3 3 8 9 11 14 16 17 15 14 12 11 11 8 6 5
15 13 11 8 5 1 0 1 5 6 4 6 6 7 2 2 2 1 2 2 1 1 0 1 1 2 2 2 1 0 3 2 1 1 1 3 1 2 0 2 3 1 3 1 4 7 7 3 5 4 5 7 7 9 9 10 9 1 5 5 2 3 5 4 3 3 5 3 8 11 12 4 1 5 11 12 14 20 14 10 11 11 11 10 10 10 7 6
16 11 7 3 2 1 1 4 6 2 4 3 5 2 2 5 2 2 3 1 1 3 1 1 3 1 2 2 1 2 0 1 2 3 1 1 2 2 2 1 4 3 2 4 5 5 3 3 2 3 7 4 5 5 5 11 8 4 2 2 6 4 4 5 3 5 2 5 5 7 13 9 4 3 10 16 9 8 14 18 18 18 17 14 11 11 8 7
16 11 7 5 4 2 3 4 1 2 4 4 2 5 4 2 4 4 0 2 1 3 0 2 1 1 2 0 2 0 2 1 0 3 7 4 3 4 1 2 2 0 3 1 5 4 3 4 3 4 3 10 3 4 5 4 6 5 3 3 8 1 2 2 4 2 2 6 4 10 10 1 10 7 7 14 13 5 11 12 16 17 15 13 12 12 9 7
19 13 7 8 5 2 7 5 4 4 4 2 3 3 3 4 4 3 1 2 1 0 2 3 2 3 1 2 1 1 2 2 1 0 3 1 3 3 2 2 5 4 1 2 2 4 6 2 2 4 4 4 6 6 3 3 4 7 7 6 6 4 4 4 2 1 1 11 7 6 12 6 2 4 2 8 11 7 7 9 11 13 14 14 13 12 10 8
22 13 3 6 10 8 3 2 1 5 4 3 3 5 7 8 1 4 2 1 2 2 4 1 0 3 3 4 1 3 0 2 3 1 2 1 4 1 1 3 1 2 1 1 1 1 2 2 5 3 2 3 5 7 9 6 7 8 4 9 7 6 4 4 4 7 8 8 3 6 7 4 3 2 5 7 5 11 7 9 10 12 12 11 10 10 9 8
25 11 4 1 4 9 12 7 4 3 1 5 8 5 6 0 2 2 2 3 2 2 2 4 2 2 1 3 2 1 3 0 1 5 5 3 2 1 1 3 5 1 1 1 2 1 3 5 7 4 4 1 6 5 6 6 5 1 4 6 5 7 6 4 7 10 8 3 2 3 4 1 3 2 5 4 3 6 7 7 8 10 9 10 9 10 10 9
11 1 4 2 3 2 6 6 5 2 4 8 6 7 4 1 1 0 1 1 2 1 4 4 8 6 2 2 2 4 4 1 2 5 2 3 1 2 2 0 2 2 2 5 2 1 3 2 3 7 3 4 6 5 3 6 4 4 5 5 4 3 7 4 2 1 4 5 1 0 4 3 5 2 8 7 7 5 5 5 7 9 10 11 10 10 9 7
5 5 1 2 3 3 6 6 5 4 6 6 6 3 1 1 4 1 3 1 0 0 4 7 4 3 2 2 2 4 3 3 3 3 1 1 3 4 3 3 4 1 2 2 0 2 1 6 5 2 3 3 2 1 1 0 5 4 3 7 1 2 3 4 3 1 2 4 2 2 1 5 3 1 6 11 9 10 7 3 5 5 8 10 8 8 8 7
6 3 3 3 3 5 7 7 4 7 4 5 4 3 1 2 1 0 2 2 2 4 5 3 0 4 1 1 6 4 2 5 3 3 1 1 2 2 1 3 5 1 4 2 2 1 2 3 3 2 2 7 4 4 3 1 1 7 5 4 3 2 2 3 3 1 2 0 1 3 1 2 2 2 7 9 8 8 6 6 7 6 5 4 4 5 8 11
1 2 3 3 2 7 4 5 7 4 4 6 3 3 1 2 2 1 4 1 1 3 5 1 1 2 1 2 1 3 4 3 0 2 3 1 3 1 2 1 4 8 6 3 1 0 1 1 6 2 0 4 3 3 4 1 3 3 4 3 0 3 2 3 4 3 6 3 3 3 2 3 1 0 1 3 6 4 5 9 9 8 8 6 6 7 8 9
2 2 2 2 4 5 5 5 5 5 4 2 1 2 2 1 2 3 6 2 3 3 0 1 1 2 4 1 1 1 3 3 2 0 3 1 3 1 3 3 1 7 4 4 1 1 0 1 1 7 6 2 1 1 4 6 5 2 3 1 0 1 2 3 1 1 4 6 4 5 1 4 1 1 2 5 8 7 8 10 8 7 7 8 8 7 7 6
1 2 2 3 2 4 6 8 3 1 1 2 1 3 2 1 3 3 5 5 2 1 2 1 1 3 0 4 7 2 1 3 2 2 1 1 1 1 1 2 1 4 3 2 6 3 1 2 1 4 6 2 2 2 2 6 6 6 5 1 3 3 3 3 2 2 3 6 5 5 4 2 2 3 3 5 6 9 9 11 10 10 10 9 8 9 7 7
2 2 1 1 1 3 7 1 1 0 1 1 2 0 1 3 2 4 3 4 5 2 2 3 1 2 2 1 1 3 2 3 3 2 2 3 1 2 2 2 4 0 1 1 3 3 0 1 1 3 2 3 4 9 2 4 1 4 6 1 5 2 5 4 3 3 3 2 4 2 5 1 1 2 1 3 8 10 9 11 11 10 10 10 9 9 8 7
2 2 5 7 5 4 6 1 2 0 1 3 2 1 1 2 1 3 3 3 2 2 2 3 1 1 2 1 1 2 1 2 1 1 0 1 1 0 5 7 5 3 3 3 1 2 2 2 3 4 5 5 5 4 2 5 3 6 4 1 2 1 1 4 2 4 6 2 3 2 1 1 2 2 2 8 8 9 8 9 11 10 9 10 11 10 8 7
2 2 5 3 4 3 4 2 3 4 4 4 1 1 3 1 4 5 3 3 1 1 1 0 2 1 2 0 2 2 2 2 4 4 2 1 1 4 5 6 6 2 3 1 0 3 1 1 2 2 2 3 7 8 10 7 6 3 1 3 2 2 3 2 5 1 6 4 6 8 6 2 3 2 2 6 9 11 11 7 8 12 9 9 9 8 8 9
1 1 2 6 6 3 2 5 1 1 3 0 3 5 6 3 1 1 0 4 2 1 1 1 0 0 2 1 3 2 5 3 2 3 1 2 2 3 7 8 8 4 2 3 5 1 4 2 2 2 1 3 1 3 4 5 4 5 2 4 3 3 4 2 1 2 3 1 3 4 4 1 5 6 7 6 7 9 7 7 8 8 9 8 7 8 11 9
3 1 4 5 5 5 1 0 1 3 1 2 6 3 2 1 2 5 6 4 5 2 3 0 1 2 3 5 5 5 6 6 5 1 3 3 3 3 3 7 7 3 6 4 5 2 2 1 3 3 5 5 2 2 4 2 3 4 5 4 6 2 2 5 5 4 5 3 4 1 4 12 9 9 7 8 8 11 10 7 8 9 8 7 7 8 8 9
0 3 2 4 7 5 0 3 1 2 2 1 3 1 4 3 2 3 7 3 6 4 2 4 3 2 2 5 1 3 3 3 5 4 4 2 2 1 7 6 6 11 11 5 7 3 3 4 5 4 3 0 2 1 4 1 2 3 3 4 4 7 2 5 5 3 6 9 1 1 10 14 13 11 8 10 9 9 8 7 6 7 8 7 8 9 11 12
2 1 1 1 2 1 6 6 5 4 2 4 2 1 1 4 7 3 4 2 1 5 1 4 8 6 5 1 2 2 3 3 4 3 5 2 2 7 5 7 5 8 6 3 4 4 2 1 3 0 3 2 3 6 6 3 2 0 2 6 9 6 2 4 0 3 5 7 9 9 12 11 13 11 10 9 9 10 9 8 9 9 9 8 8 10 11 11
2 0 0 1 1 3 2 5 1 5 7 4 1 3 3 4 4 1 0 4 4 5 3 2 5 7 7 5 5 2 3 2 4 2 1 4 2 2 4 5 3 8 6 4 5 1 3 1 1 3 2 7 11 9 8 6 3 5 9 7 7 9 4 7 6 3 4 1 5 16 9 7 8 10 8 7 5 8 7 5 5 9 10 8 9 10 11 11
2 2 3 3 1 3 4 1 0 6 5 2 3 3 1 1 4 4 3 4 2 3 3 7 1 6 7 8 5 4 1 3 2 2 2 1 4 2 0 1 3 6 5 4 2 3 3 2 6 4 4 5 10 12 10 8 6 6 8 10 9 7 7 5 9 11 15 12 11 13 13 9 1 5 7 6 8 9 9 7 7 7 6 7 8 8 8 8
1 1 0 2 4 4 3 3 3 4 3 4 4 1 3 3 2 0 3 1 2 0 2 3 1 3 4 6 6 4 1 1 1 1 3 1 1 1 1 2 1 2 5 5 4 4 6 1 4 3 3 6 6 11 10 9 5 7 9 11 10 6 2 0 4 2 7 9 13 12 10 6 4 7 8 8 10 10 10 8 7 7 7 8 10 9 9 9
2 2 1 2 0 1 2 3 1 3 4 1 2 1 1 2 2 1 3 2 3 2 2 4 2 6 4 8 6 4 5 3 4 4 3 3 1 2 2 2 2 2 1 3 1 3 2 1 2 3 5 3 8 7 8 8 5 6 7 8 9 4 1 2 3 4 9 20 12 11 9 6 11 10 11 10 10 9 9 8 10 8 6 8 9 10 9 9
Wind_Direction
342 342 341 340 338 337 335 334 334 333 331 330 329 328 328 329 329 326 327 328 325 323 322 321 319 319 319 316 319 324 339 335 324 291 206 241 193 217 178 218 168 192 209 106 102 118 134 157 197 211 176 142 222 195 176 143 139 81 199 153 340 202 167 148 177 190 107 136 156 176 191 136 138 217 291 75 66 120 100 80 84 95 100 118 126 130 138 142
342 340 340 338 337 335 334 334 332 331 330 328 327 327 326 326 326 326 325 325 325 323 322 320 319 316 316 312 321 329 337 308 288 260 234 228 210 201 206 205 179 176 161 120 160 160 136 178 196 174 157 179 165 237 147 207 148 173 172 89 274 182 62 150 184 142 141 162 154 164 172 154 145 138 199 133 134 132 113 118 122 104 105 115 126 136 143 146
339 338 337 336 336 335 335 332 331 328 328 327 325 325 325 323 324 323 325 324 321 324 320 320 316 315 313 313 319 338 338 299 269 264 259 235 219 194 200 198 170 162 168 157 194 160 157 175 166 157 193 148 194 201 165 257 176 225 110 292 258 218 134 133 144 153 175 141 144 152 173 147 151 137 24 144 140 136 139 146 134 130 135 138 139 144 150 148
337 336 334 334 334 334 333 330 330 328 327 325 324 323 322 323 321 321 321 322 321 320 321 316 314 314 312 311 320 330 314 315 265 247 250 220 188 182 193 195 184 179 166 322 141 155 348 88 142 165 142 220 239 177 175 204 170 227 114 229 212 197 122 153 144 147 127 150 143 143 142 132 163 47 77 141 129 152 153 163 154 148 147 145 147 148 152 149
335 334 332 331 332 331 330 329 328 327 325 324 323 321 321 321 320 318 317 318 319 318 317 315 312 311 310 307 348 343 277 40 219 231 246 173 168 175 181 179 179 169 173 143 116 118 65 80 91 172 215 239 210 137 234 174 211 113 217 218 175 175 78 150 146 134 143 128 138 137 147 168 106 64 36 160 161 171 171 164 156 146 146 148 151 152 151 151
334 333 332 331 329 329 328 328 327 325 324 321 321 320 320 320 317 316 315 313 314 313 313 313 311 312 308 313 316 146 119 105 290 281 79 154 153 167 171 155 171 149 152 154 142 138 146 200 99 97 196 213 196 181 229 168 179 257 267 256 194 229 132 155 142 145 145 145 158 158 155 101 104 79 53 21 334 235 152 150 151 148 148 148 147 150 154 153
335 332 331 329 328 327 327 326 326 324 322 321 318 319 317 316 314 313 311 309 307 311 309 313 310 309 309 299 157 109 111 274 317 260 50 141 153 162 146 150 151 126 142 143 156 147 168 135 135 181 271 221 249 212 221 164 186 240 281 211 218 193 148 156 146 146 145 172 164 134 111 82 118 112 301 104 268 275 139 141 143 139 142 147 152 159 157 155
334 331 329 328 327 325 325 324 323 322 321 320 319 317 315 313 312 310 307 305 305 305 308 308 314 306 324 347 163 344 42 253 248 273 110 132 148 156 131 100 128 132 146 185 165 167 147 173 171 146 219 193 219 194 171 125 182 219 266 178 124 134 131 137 140 150 133 58 15 87 91 136 139 117 186 28 311 131 135 139 141 143 145 151 155 157 156 156
333 330 330 327 326 325 324 324 322 320 318 318 315 315 312 311 309 305 303 300 302 302 303 306 302 304 352 334 123 3 271 234 224 156 124 133 148 142 128 134 147 146 162 163 192 165 145 210 171 200 206 226 243 161 170 130 283 216 230 272 128 116 95 115 108 115 89 92 67 83 93 88 81 90 38 328 323 151 139 141 147 148 149 155 161 160 160 161
332 330 329 328 327 326 324 322 321 319 317 316 315 313 311 308 305 301 298 299 298 297 298 300 279 277 104 30 74 160 264 199 38 108 124 138 137 137 161 123 152 149 146 198 146 175 195 172 182 202 261 281 229 223 177 179 231 172 181 10 108 113 100 43 108 84 86 72 102 102 105 76 347 302 138 285 276 142 144 148 152 151 154 158 162 162 163 164
332 330 329 328 327 325 322 321 320 318 315 313 314 312 307 304 301 298 295 296 295 294 290 273 234 126 94 223 133 224 285 50 39 104 130 136 138 148 187 160 166 161 163 148 194 197 189 212 153 301 214 235 308 303 148 220 169 140 105 75 58 69 61 90 89 96 109 89 125 123 131 252 344 292 159 182 206 97 150 153 155 156 156 162 162 163 165 169
333 332 329 327 327 324 322 320 319 317 314 314 313 309 305 301 300 297 293 294 293 292 281 271 155 151 44 61 210 224 327 86 73 74 129 142 164 187 182 163 168 172 164 178 211 203 204 207 27 354 186 9 338 325 245 229 92 147 123 93 104 97 88 5 113 135 119 120 149 131 94 282 55 159 109 41 267 299 156 156 158 159 159 163 162 162 169 172
333 332 329 328 325 324 321 320 318 316 316 312 311 306 302 300 297 292 290 291 285 276 263 221 150 138 94 331 231 236 277 25 102 114 104 89 36 40 90 149 177 164 184 173 204 185 199 168 30 316 280 331 282 292 239 148 118 112 61 127 112 41 41 208 28 100 100 153 151 135 151 203 237 197 338 213 237 167 158 161 162 161 161 164 167 168 172 174
333 331 330 326 324 323 321 320 318 316 314 312 308 304 301 300 293 284 283 279 277 279 223 162 131 150 96 245 275 242 245 214 171 132 177 137 112 233 36 107 179 185 198 222 36 128 151 174 217 241 265 248 259 284 36 347 120 125 116 81 134 114 237 113 102 129 115 192 174 204 127 178 183 201 163 230 249 168 160 164 163 161 164 167 172 172 178 180
332 331 328 327 325 323 321 318 317 315 313 311 309 304 302 297 287 282 279 279 267 156 141 123 11 101 30 270 269 274 259 116 173 217 166 148 151 98 208 143 187 209 220 216 232 153 153 149 176 272 265 230 225 316 2 45 60 141 113 270 348 146 291 123 139 172 144 197 242 117 79 189 183 198 177 190 145 157 163 165 162 164 167 170 173 177 181 183
326 329 327 327 327 324 319 318 314 316 314 313 310 305 302 293 284 280 276 239 40 150 146 58 230 240 95 297 254 303 273 134 250 195 178 150 178 185 179 179 129 219 240 271 224 288 323 44 257 213 255 294 138 94 49 54 339 296 101 129 154 107 198 89 210 184 216 146 220 275 153 147 221 200 169 167 165 149 170 170 164 167 170 171 175 180 182 179
330 324 323 326 329 325 322 319 316 317 318 313 312 303 296 282 270 246 215 199 158 130 232 56 136 181 327 236 285 357 267 243 199 105 162 195 191 163 116 127 195 198 194 297 348 317 246 156 269 191 256 157 153 105 87 13 221 250 52 134 179 165 150 225 99 183 191 160 179 241 134 187 126 155 165 167 173 163 189 178 171 169 173 174 177 180 183 180
332 328 326 326 329 327 323 318 315 321 320 316 310 294 284 272 252 142 75 138 136 172 290 229 237 328 283 314 344 184 308 309 196 174 180 191 185 132 136 162 116 117 102 348 195 203 189 201 114 210 327 97 101 76 144 205 171 170 92 99 133 75 186 207 168 190 170 199 175 179 151 171 134 147 167 172 182 185 188 182 178 173 173 177 180 181 186 181
332 330 326 324 327 325 322 319 319 319 326 319 311 288 234 207 150 232 125 168 118 5 17 243 116 107 144 259 283 290 293 230 6 116 204 157 200 203 140 119 102 116 99 100 288 159 315 93 31 79 201 175 193 184 160 127 101 145 169 185 166 159 203 225 198 145 171 171 185 169 168 167 159 159 163 154 183 189 189 191 199 181 177 180 182 183 188 178
329 327 323 322 323 322 322 319 317 323 338 335 10 57 107 56 25 331 341 222 218 218 251 211 203 299 314 278 272 261 289 256 219 217 152 180 128 165 166 126 72 79 111 167 253 205 144 177 192 204 207 208 214 149 188 242 105 125 56 159 185 189 231 58 131 150 175 150 193 165 139 162 168 173 166 170 186 191 181 199 203 184 182 184 185 187 187 178
323 323 321 320 319 317 317 319 315 323 335 317 296 134 104 170 58 311 263 229 227 241 237 235 188 209 237 301 285 4 17 338 208 236 189 157 112 116 238 117 68 138 207 192 164 252 83 192 239 213 213 203 205 141 161 266 306 129 116 146 224 195 216 203 134 152 174 151 155 131 143 174 174 171 164 155 184 191 186 193 201 187 185 187 186 189 184 180
321 321 321 319 318 316 316 316 316 315 324 274 351 66 235 232 162 175 92 320 285 223 220 241 269 276 267 257 261 231 45 270 307 281 317 131 161 137 271 120 142 187 285 67 17 27 183 213 238 223 221 228 96 110 155 193 272 50 152 204 168 232 59 63 109 154 162 93 150 139 151 174 174 167 168 174 191 194 194 192 191 180 184 188 190 188 176 167
321 320 319 319 318 317 318 315 314 336 253 88 19 313 233 235 49 2 162 246 276 238 191 186 212 246 280 252 212 133 131 209 234 260 190 121 137 179 142 102 167 177 58 107 170 97 244 264 237 234 166 181 279 130 148 309 332 112 124 170 217 208 135 57 141 156 161 182 146 147 130 155 160 164 174 187 157 348 319 266 202 201 186 189 191 186 176 171
317 317 319 318 319 321 315 322 311 248 224 233 215 214 239 275 20 352 83 252 296 311 201 205 172 189 231 282 183 140 141 238 173 217 263 120 152 191 121 148 149 121 216 157 163 169 222 247 219 198 161 178 241 175 141 176 262 196 189 219 235 163 198 156 167 149 117 66 121 111 94 65 208 182 190 182 145 195 209 245 247 270 229 193 190 186 180 174
315 317 319 319 321 318 319 322 72 272 283 189 240 246 270 284 141 201 94 342 13 292 249 129 237 228 240 283 164 228 221 228 211 194 167 122 120 105 210 193 110 204 198 171 135 209 274 266 228 79 161 175 215 264 195 154 230 317 233 214 217 150 130 116 142 146 116 142 177 137 125 220 214 215 203 178 171 201 207 207 220 217 208 186 193 186 191 184
316 316 319 321 321 325 309 93 7 308 354 294 257 300 328 334 114 147 100 80 336 264 348 222 34 306 55 275 72 162 70 245 230 222 140 187 152 140 123 237 129 205 210 131 181 203 224 248 141 209 199 199 194 224 204 159 188 104 267 210 212 146 134 142 150 134 167 175 195 159 130 233 236 212 203 183 192 208 206 221 221 215 213 204 199 181 182 179
313 315 319 322 326 332 356 334 284 284 11 315 316 343 327 319 91 102 47 3 29 305 162 244 43 287 79 229 130 68 96 263 312 98 102 198 169 109 117 215 86 316 157 159 54 268 229 243 184 203 183 195 203 239 220 157 144 231 248 176 188 135 146 160 164 161 125 104 148 215 88 150 207 226 189 178 201 204 214 222 224 215 211 209 208 188 181 180
312 315 318 322 321 359 253 325 350 1 229 239 350 327 325 315 107 43 77 68 324 278 300 298 239 296 49 325 82 111 201 172 106 268 195 200 110 13 111 194 166 191 207 103 204 262 178 242 182 208 205 194 216 208 204 162 164 214 256 167 174 163 168 169 164 154 135 110 168 214 175 46 243 261 166 175 199 209 214 215 218 217 211 209 211 199 181 183
313 314 318 318 322 335 221 215 92 251 236 331 324 312 309 25 88 95 116 103 306 334 227 28 277 271 305 33 109 306 332 118 113 253 13 51 35 143 173 216 163 190 221 163 217 282 270 205 214 188 170 219 226 219 187 172 201 265 218 215 201 173 159 163 156 138 130 109 203 212 199 170 283 198 156 179 205 213 212 209 211 212 209 204 208 203 183 178
313 315 314 313 328 110 12 231 226 246 324 309 303 302 341 58 33 45 14 47 21 342 282 244 49 249 80 107 321 358 246 309 144 3 70 145 264 27 152 152 153 245 282 327 236 234 247 272 183 146 195 216 214 222 179 187 203 199 174 194 52 77 133 149 126 109 73 201 237 196 196 178 293 197 186 165 208 208 195 201 206 207 210 208 210 207 186 177
312 308 302 291 178 241 170 311 252 230 245 283 292 343 67 37 106 108 67 266 360 251 343 309 236 328 115 124 161 300 93 318 351 124 72 85 8 45 19 341 27 40 25 350 294 286 299 263 204 226 198 219 189 248 186 189 201 194 167 148 74 27 32 68 8 16 158 246 245 162 191 184 217 258 206 218 226 199 185 194 194 197 200 200 202 208 198 178
310 307 276 182 241 358 169 254 242 327 326 307 4 47 66 331 7 70 237 340 50 298 149 276 265 147 220 115 116 250 182 9 251 152 165 160 120 181 214 154 189 88 318 305 282 344 296 219 224 257 207 189 188 195 281 121 157 153 119 124 138 226 91 206 13 76 266 226 246 173 151 115 242 228 217 229 224 178 193 197 197 196 194 194 197 203 201 182
313 309 258 216 194 242 242 268 336 316 319 340 62 53 58 98 49 305 325 321 261 184 287 196 222 153 149 72 294 268 323 184 274 301 95 43 131 252 243 171 188 149 199 243 272 13 281 279 300 270 302 188 145 176 230 164 180 147 165 156 148 148 170 173 191 88 260 266 248 141 163 204 263 302 252 232 218 204 186 196 192 191 191 190 192 195 197 190
312 316 287 197 196 215 241 199 277 346 352 37 74 38 53 57 17 309 309 239 252 288 295 318 308 65 90 169 244 149 330 277 143 180 119 46 50 341 345 360 125 26 100 223 295 211 50 298 280 183 239 218 164 180 180 172 167 190 140 163 182 144 155 181 165 175 210 214 284 127 131 236 147 237 312 268 250 190 183 185 180 181 182 182 187 189 192 189
311 299 188 185 233 243 233 239 257 261 53 54 47 81 87 330 236 297 296 303 299 317 346 334 68 61 34 8 290 272 158 283 105 74 21 67 348 94 20 348 343 155 139 100 266 83 210 217 255 224 237 306 188 206 143 106 99 226 156 81 114 209 144 167 189 178 198 152 98 155 185 208 190 281 288 281 232 183 156 159 150 162 162 165 171 184 192 190
325 52 142 238 227 260 161 178 192 147 80 45 75 43 48 170 339 266 320 222 312 29 308 5 46 49 336 337 305 13 339 123 350 90 33 84 156 42 297 266 17 310 175 161 215 185 16 304 260 306 276 190 230 154 205 141 168 226 123 166 208 181 114 85 56 19 98 71 225 235 342 309 292 8 354 16 74 65 93 125 146 150 157 161 175 182 187 179
8 330 6 299 276 177 146 150 154 104 63 84 87 38 212 296 193 214 263 38 20 213 40 65 349 42 4 327 281 334 337 47 352 95 356 39 358 354 340 293 210 319 166 143 327 190 159 254 299 56 317 313 194 224 201 78 143 106 147 225 187 134 109 125 190 360 59 147 235 73 280 304 27 191 346 24 40 23 24 67 115 124 136 161 174 173 171 120
333 333 252 274 244 134 138 157 110 51 81 76 49 328 195 20 280 247 291 359 20 27 74 86 286 100 304 97 358 338 326 89 292 59 137 309 117 252 315 314 287 53 307 316 133 268 106 343 293 235 262 270 320 84 11 23 78 145 185 203 130 252 225 324 109 194 114 278 218 327 310 266 166 295 359 6 13 6 19 65 89 95 115 134 138 136 112 123
278 29 356 266 350 137 142 132 67 75 60 50 340 17 282 238 290 5 299 156 86 110 67 6 121 342 142 60 253 319 45 100 31 115 90 329 81 114 57 190 308 341 352 19 68 339 52 177 295 291 126 300 338 96 206 279 341 29 83 59 298 109 154 136 200 164 111 172 95 277 43 236 80 93 319 37 28 31 59 72 76 85 96 104 108 109 125 148
25 38 308 280 335 111 136 76 64 42 62 34 259 236 236 321 325 318 355 78 25 65 320 88 343 58 19 338 110 2 23 63 59 112 102 301 129 301 5 333 336 320 32 8 122 250 162 106 250 285 323 99 174 360 191 170 140 46 44 331 213 21 223 116 41 87 151 159 172 146 248 275 316 304 47 78 71 84 92 80 68 61 60 78 88 103 110 120
342 99 266 298 72 144 76 49 38 34 27 258 221 249 318 303 340 334 348 39 107 28 130 132 74 72 266 18 9 359 59 45 34 59 107 9 112 7 288 301 284 337 358 17 43 7 54 20 284 313 358 12 239 238 225 166 167 142 147 145 177 136 146 132 250 360 82 109 172 136 222 265 298 41 109 103 91 89 84 89 82 69 62 60 70 83 95 109
69 17 282 260 315 43 75 44 311 215 74 282 272 212 292 354 33 343 2 0 83 63 57 100 14 99 42 41 180 337 80 26 355 76 360 123 303 135 273 55 259 275 85 31 269 266 137 175 83 309 223 251 269 295 288 236 122 127 117 143 160 133 105 100 164 254 51 36 89 111 114 280 23 45 70 98 102 93 83 85 80 67 57 55 63 68 53 51
66 217 257 316 330 99 64 32 276 11 229 234 286 282 295 18 67 327 21 16 39 51 39 50 360 80 12 59 350 58 88 65 16 98 305 360 16 267 293 336 315 52 82 331 359 286 191 47 0 294 319 299 307 271 311 46 82 39 8 24 68 78 189 166 169 179 122 158 69 6 71 188 65 54 122 106 91 88 85 87 93 79 69 53 43 31 44 57
188 245 320 296 359 90 93 236 303 305 273 309 84 296 340 110 37 7 10 340 71 349 94 339 352 32 100 95 69 27 323 91 15 42 7 37 26 310 345 8 358 20 58 283 80 293 12 334 104 344 6 337 342 354 5 346 47 73 294 310 319 21 74 143 105 56 97 212 175 135 201 219 159 116 109 114 95 92 96 88 92 97 84 80 79 73 55 42
315 291 243 295 355 76 164 195 165 253 294 61 63 22 350 25 124 63 272 5 346 147 78 1 253 267 42 68 80 47 32 115 109 6 122 7 285 338 347 14 357 19 311 226 231 298 84 337 74 90 128 94 18 30 340 325 304 292 286 339 351 134 150 114 149 35 102 260 107 117 145 180 142 142 126 116 107 95 83 86 82 83 95 92 76 81 79 65
18 55 307 335 6 20 57 127 123 149 115 41 40 345 37 20 332 1 49 41 26 12 100 205 303 70 65 50 36 22 30 29 83 313 38 329 321 345 328 352 33 2 336 27 15 88 104 40 81 128 137 134 173 222 253 233 344 31 301 13 350 358 32 102 103 92 168 191 102 223 171 144 156 161 142 133 123 119 113 106 103 104 101 101 107 95 87 86
131 74 358 338 337 36 356 359 349 58 27 125 77 353 28 24 286 346 20 75 357 5 3 42 353 32 1 72 25 39 350 39 11 73 5 313 273 267 293 33 358 10 351 10 358 81 59 47 360 83 73 284 211 204 302 279 54 329 341 352 354 12 320 95 131 213 161 101 295 298 157 147 167 162 152 141 128 113 110 105 108 112 112 112 106 102 102 96
65 276 93 160 126 296 14 343 22 68 39 80 50 57 340 46 34 30 328 45 246 33 90 354 25 23 12 91 124 76 351 47 34 16 321 356 358 341 11 344 37 354 17 17 359 92 124 91 311 360 61 4 332 9 5 48 73 350 347 42 30 337 15 102 210 138 126 144 193 173 163 153 156 157 149 141 135 134 136 140 130 113 99 100 100 94 91 94
112 241 181 338 126 259 193 255 315 91 63 66 93 47 32 54 47 2 140 322 21 356 53 91 2 19 38 36 91 79 17 63 347 337 41 330 24 344 17 339 328 12 28 26 17 90 79 42 318 8 353 28 5 12 3 39 19 22 18 20 38 24 8 86 78 62 97 114 137 140 128 113 143 147 146 131 117 110 102 96 97 100 104 106 100 98 98 99
360 43 315 358 73 260 267 293 181 67 58 6 84 328 97 351 60 357 7 45 23 335 16 81 24 49 51 56 61 78 349 135 136 36 310 85 335 65 85 190 275 324 24 18 350 342 103 310 2 32 39 359 348 355 15 11 39 36 5 11 28 45 48 69 100 97 83 70 96 110 118 118 66 126 119 114 108 111 113 110 103 98 93 89 90 91 90 88
270 180 166 39 3 311 347 11 47 76 77 347 78 301 59 344 75 85 71 338 92 303 24 128 209 64 34 55 56 60 271 189 193 276 256 193 93 259 111 314 122 334 356 4 17 331 54 290 50 60 72 327 344 353 346 354 350 48 14 359 1 19 54 118 116 190 115 131 123 114 117 148 153 126 127 116 124 126 124 116 98 88 93 98 94 91 88 85
3 298 49 118 285 355 24 322 3 60 32 244 135 338 111 322 271 131 56 32 61 65 176 144 172 90 20 39 16 333 291 237 247 247 216 223 211 41 82 99 98 79 352 30 308 52 13 94 39 39 100 257 318 332 347 351 17 17 346 331 323 299 143 16 28 60 143 136 130 152 180 145 144 143 135 134 131 128 119 113 109 99 97 102 100 96 91 84